SCP
0 0 0 0 0 0 0 0 0 0 0 0 0 0 0 0 0 0 0 0 0 0 0 0 0 0 0 0 0 0 0 0 0 0 0 0 0 0 0 0 0 0 0 0
0 0 0 0 0 0 0 0 0 0 0 0 0 0 -0 -0 -0 -0 0 0 0 0 0 0 0 0 0 0 0 0 0 0 0 0 0 0 0 0 0 0 0 0 0 0
0 0 0 0 0 0 0 0 0 0 0 0 0 0 0 -0 -0 0 -0 0 0 0 0 0 0 0 0 0 0 0 0 0 0 0 0 0 0 0 0 0 0 0 0 0
0 0 0 0 0 0 0 0 0 0 0 0 0 0 -0 -0 0 0 0 -0 -0 0 0 0 0 0 0 0 0 0 0 0 0 0 0 0 0 0 0 0 0 0 0 0
0 0 0 0 0 0 0 0 0 0 0 0 0 0 0 0 0 0 0 0 0 0 0 0 0 0 0 0 0 0 0 0 0 0 0 0 0 0 0 0 0 0 0 0
0 0 0 0 0 0 0 0 0 0 0 0 0 0 0 -0 -0 0 0 0 0 0 0 0 0 0 0 0 0 0 0 0 0 0 0 0 0 0 0 0 0 0 0 0
0 0 0 0 0 0 0 0 0 0 0 0 0 0 0 -0 -0 0 0 0 0 0 0 0 0 0 0 0 0 0 0 0 0 0 0 0 0 0 0 0 0 0 0 0
0 0 0 0 0 0 0 0 0 0 0 0 0 0 0 -0 0 0 0 0 0 0 0 0 0 0 0 0 0 0 0 0 0 0 0 0 0 0 0 0 0 0 0 0
0 0 0 0 0 0 0 0 0 0 0 0 0 0 0 0 0 0 0 0 0 0 0 0 0 0 0 0 0 0 0 0 0 0 0 0 0 0 0 0 0 0 0 0
0 0 0 0 0 0 0 0 0 0 0 0 -0 -0 -0 0 0 0 0 0 0 0 0 0 0 0 0 0 0 0 0 0 0 0 0 0 0 0 0 0 0 0 0 0
0 0 0 0 0 0 0 0 0 0 0 -0 0 0 0 0 0 0 0 0 0 0 0 0 0 0 0 0 0 0 0 0 0 0 0 0 0 0 0 0 0 0 0 0
0 0 0 0 0 0 0 0 0 0 -0 0 0 0 0 0 0 0 0 0 0 0 0 0 0 0 0 0 0 0 0 0 0 0 0 0 0 0 0 0 0 0 0 0
0 0 0 0 -0 0 0 0 0 0 0 0 0 0 0 0 0 0 0 0 0 0 0 0 0 0 0 0 0 0 0 0 0 0 0 0 0 0 0 0 0 0 0 0
0 0 0 0 0 0 0 0 0 0 0 0 0 0 0 0 0 0 0 0 0 0 0 0 0 0 0 0 0 0 0 0 0 0 0 0 0 0 0 0 0 0 0 0
0 0 0 0 0 0 0 1 1 0 1 0 0 0 0 0 0 0 0 0 0 0 0 0 0 0 0 0 0 0 0 0 0 0 0 0 0 0 0 0 0 0 0 0
0 0 0 0 0 0 1 1 0 0 0 0 0 0 0 0 0 0 0 0 0 0 0 0 0 0 0 0 0 0 0 0 0 0 0 0 0 0 0 0 0 0 0 0
0 0 0 0 0 1 0 0 0 0 1 0 0 0 0 0 0 0 0 0 0 0 0 0 0 0 0 0 0 0 0 0 0 0 0 0 0 0 0 0 0 0 0 0
0 0 0 0 0 0 0 0 0 0 0 0 0 0 0 0 0 0 0 0 0 0 0 0 0 0 0 0 0 0 0 0 0 0 0 0 0 0 0 0 0 0 0 0
0 0 0 0 0 0 0 0 0 0 0 0 -0 -0 0 0 0 0 0 0 0 0 0 0 0 0 0 0 0 0 0 0 0 0 0 0 0 0 0 0 0 0 0 0
0 0 0 0 0 0 0 0 0 0 0 0 0 0 0 0 0 0 0 0 0 0 0 0 0 0 0 0 0 0 0 0 0 0 0 0 0 0 0 0 0 0 0 0
0 0 0 0 0 0 0 0 0 0 0 0 0 0 0 0 0 0 0 0 0 0 0 0 0 0 0 0 0 0 0 0 0 0 0 0 0 0 0 0 0 0 0 0
0 0 0 0 0 0 0 0 0 0 0 0 0 0 0 0 0 0 0 0 0 0 0 0 0 0 0 0 0 0 0 0 0 0 0 0 0 0 0 0 0 0 0 0
0 0 0 0 0 0 0 0 0 0 0 0 0 0 0 0 0 0 0 0 0 0 0 0 0 0 0 0 0 0 0 0 0 0 0 0 0 0 0 0 0 0 0 0
0 0 0 0 0 0 0 0 0 0 0 0 0 0 0 0 0 0 0 0 0 0 0 0 0 0 0 0 0 0 0 0 0 0 0 0 0 0 0 0 0 0 0 0
0 0 0 0 0 0 0 0 0 0 0 0 0 0 0 0 0 0 0 0 0 0 0 0 0 0 0 0 0 0 0 0 0 0 0 0 0 0 0 0 0 0 0 0
0 -0 0 0 0 0 0 0 0 0 0 0 0 0 0 0 0 0 0 0 0 0 0 0 0 0 0 0 0 0 0 0 0 0 0 0 0 0 0 0 0 0 0 0
0 0 0 0 0 0 0 0 0 0 0 0 0 0 0 -0 -0 0 0 0 0 0 0 0 0 0 0 0 0 0 0 0 0 0 0 0 0 0 0 0 0 0 0 0
Wind_Speed_500mb
10 8 5 8 8 6 13 7 8 10 7 10 8 8 14 10 14 19 23 25 24 27 23 14 22 19 27 29 25 26 28 24 26 26 28 30 30 34 36 39 42 44 48 49
6 6 10 5 13 11 6 2 5 5 4 16 7 10 19 13 17 21 24 25 29 28 13 17 22 24 17 20 23 24 21 20 24 26 25 28 31 32 38 42 45 50 54 58
8 8 9 10 5 4 5 5 4 4 7 9 2 5 8 9 10 12 15 16 15 17 15 3 6 7 9 16 15 14 12 18 23 25 27 30 36 41 44 44 45 49 53 53
5 7 4 9 2 1 12 9 19 7 9 6 4 1 11 27 15 15 12 6 5 10 9 11 9 2 7 5 3 6 14 21 26 30 31 35 39 40 42 44 42 35 29 29
6 6 9 2 6 1 5 2 12 11 7 13 9 5 8 22 22 15 15 7 1 10 15 16 10 8 8 3 5 12 17 17 19 22 29 38 41 38 34 33 29 32 35 30
4 4 7 10 4 6 3 4 11 6 20 13 7 3 12 26 18 19 16 6 4 12 15 15 13 11 8 4 4 9 16 20 23 28 33 32 32 29 25 25 23 21 27 23
2 4 11 6 6 3 3 12 6 26 33 28 14 35 31 39 27 28 20 10 12 15 17 13 11 7 8 5 8 11 14 20 26 27 25 25 22 17 14 20 26 26 24 21
4 3 11 3 8 7 11 17 30 35 32 30 49 44 34 44 44 45 32 21 14 18 17 16 11 9 2 8 12 15 17 22 24 25 24 15 12 13 22 29 26 19 18 22
12 10 9 13 20 16 24 29 42 44 35 36 50 35 17 29 51 46 36 27 18 20 17 14 12 13 16 19 18 19 20 19 19 12 14 15 16 23 25 20 21 21 29 35
5 8 20 23 28 32 40 43 32 27 42 24 24 24 22 34 51 49 41 26 29 28 22 16 12 10 15 16 15 16 16 14 16 15 15 13 15 20 21 21 23 30 32 34
9 18 22 38 45 47 47 41 39 38 26 34 22 23 17 41 49 42 37 33 34 28 20 13 9 11 13 16 13 13 11 13 15 19 16 10 15 19 20 23 28 31 30 33
11 14 19 24 20 33 46 35 28 18 23 22 9 5 21 44 39 33 35 40 34 24 16 12 7 11 12 11 5 5 9 11 17 20 11 12 16 14 15 22 29 32 33 35
9 11 24 40 41 35 13 19 16 15 16 14 17 13 31 30 29 29 37 32 25 18 14 6 4 10 8 2 5 5 8 10 16 17 14 14 15 7 13 20 27 34 39 41
24 26 25 24 14 14 14 15 15 14 11 9 10 27 32 28 34 31 29 23 19 11 4 2 8 10 4 2 2 6 6 6 15 21 21 17 18 10 17 24 30 39 47 51
24 23 23 16 16 21 15 23 21 22 27 23 21 24 21 28 30 28 26 18 10 2 3 6 6 7 3 4 2 4 3 3 10 19 13 20 22 15 17 23 32 41 50 52
12 21 29 33 23 16 27 29 32 26 17 29 23 23 25 22 24 25 17 9 3 3 5 5 6 7 6 6 5 6 8 5 3 15 11 14 11 17 22 25 33 46 50 50
13 22 26 35 34 26 32 36 28 12 18 27 22 32 33 28 25 20 15 11 5 2 4 5 6 10 9 7 9 10 11 9 6 8 11 13 15 22 25 27 37 45 46 42
19 23 27 30 27 31 45 44 32 31 17 32 42 46 35 30 23 20 18 13 5 2 4 5 7 12 15 11 11 12 14 12 12 11 14 18 22 25 25 28 40 47 41 38
18 17 14 12 10 20 32 34 25 18 28 33 45 41 30 27 24 22 18 11 7 2 5 7 10 15 21 17 16 17 16 19 16 17 21 23 26 26 28 36 43 46 37 34
9 6 5 6 5 13 19 26 19 24 26 32 38 38 38 33 29 24 20 13 9 6 7 11 14 18 22 18 16 21 21 21 22 25 24 28 28 29 33 38 45 41 35 34
10 8 7 8 11 19 21 17 20 32 30 30 40 43 37 31 27 27 25 21 14 15 13 16 17 19 24 19 16 21 23 26 24 26 27 27 31 33 39 41 42 39 34 35
12 19 14 14 17 23 22 27 24 27 32 31 38 34 31 32 33 34 29 25 20 23 21 19 21 21 22 18 18 21 24 30 32 30 28 28 30 35 38 36 41 39 37 40
13 7 16 22 23 22 21 21 22 27 34 29 34 32 32 31 35 39 38 28 28 29 28 26 27 26 24 21 20 23 26 29 31 28 28 30 32 36 36 34 36 44 45 48
21 20 12 24 29 21 18 19 24 37 32 28 33 40 38 31 35 42 40 37 34 36 36 36 35 31 31 28 26 25 29 32 33 32 33 35 36 38 37 35 37 46 49 48
24 22 21 20 20 21 23 25 28 27 32 41 32 38 44 44 46 41 38 42 42 44 45 44 43 39 36 32 32 36 33 31 31 35 37 38 38 37 35 36 37 46 51 54
24 23 23 22 20 21 21 20 25 33 39 42 47 36 40 43 54 59 54 52 50 53 55 53 51 42 38 38 38 38 39 42 44 43 44 42 39 36 33 36 40 42 51 55
15 15 16 24 21 18 17 24 27 31 29 37 29 26 38 59 66 57 60 56 59 61 57 52 47 44 46 48 41 46 45 48 55 56 51 47 42 36 34 38 43 45 51 56
Wind_Direction_500mb
227 251 239 245 10 171 191 168 188 257 229 283 184 255 300 309 308 320 327 308 299 293 281 294 243 246 255 255 258 249 294 293 314 301 290 301 306 314 318 319 324 328 324 325
317 305 317 317 30 333 40 147 273 188 213 224 143 157 274 299 301 332 349 358 353 351 262 253 241 243 266 262 255 249 297 304 339 349 314 306 316 319 318 321 323 320 320 316
265 345 342 10 323 28 350 6 282 192 256 118 223 232 273 297 297 314 326 9 20 17 32 138 210 256 275 271 249 286 306 336 344 333 329 327 317 314 316 315 312 311 313 316
226 18 25 246 15 190 125 32 1 357 39 94 208 252 333 320 282 270 289 316 5 63 77 98 110 239 254 273 313 326 327 327 329 319 319 316 312 310 311 313 316 326 330 326
142 185 275 20 306 31 190 302 339 342 260 229 169 148 269 221 255 248 242 234 150 100 109 126 152 181 180 186 280 288 298 312 317 319 320 317 314 320 327 329 334 330 326 338
117 152 204 238 317 303 99 282 348 353 65 27 336 2 269 274 267 227 202 177 127 124 131 142 141 151 180 216 284 298 301 306 311 315 319 322 322 330 338 339 354 6 358 3
116 201 285 269 329 217 91 242 143 133 118 117 229 217 246 268 286 224 210 175 142 131 130 131 149 171 206 238 276 307 309 310 313 324 330 330 329 336 5 12 6 12 11 17
113 84 283 7 295 193 199 187 170 165 185 226 214 239 270 275 244 208 191 166 149 148 145 153 163 217 283 339 338 331 321 318 325 329 337 357 9 20 1 356 2 22 22 15
176 224 284 291 255 233 208 211 220 231 259 274 258 237 295 209 196 197 188 182 176 181 170 175 212 247 288 330 343 334 327 336 346 19 20 21 360 353 4 27 27 25 11 6
31 244 253 263 247 244 234 241 238 275 302 308 277 293 289 201 195 191 193 195 188 187 187 194 226 276 311 327 344 339 348 8 35 40 29 5 22 33 32 35 30 19 13 6
259 274 276 264 250 255 249 252 262 292 276 307 287 263 256 196 188 188 195 192 188 187 188 210 265 307 322 328 338 334 6 31 41 21 27 33 39 47 39 40 26 18 14 2
233 263 219 269 294 280 267 269 285 295 286 281 264 252 195 181 180 180 190 189 182 184 203 239 245 291 311 318 359 19 10 44 34 22 56 47 34 40 46 25 15 11 10 5
256 314 292 275 290 322 277 270 267 301 305 219 185 204 180 162 168 168 167 170 179 206 189 210 321 326 322 10 64 27 36 51 31 20 20 8 8 55 39 22 14 18 12 5
257 277 288 280 265 319 321 274 258 257 167 126 180 176 165 150 152 158 165 176 173 174 174 5 347 327 335 145 122 16 35 35 29 28 30 22 11 10 0 7 10 6 1 355
231 243 257 254 279 281 242 235 212 156 130 118 259 212 179 162 164 163 156 156 160 178 312 349 358 326 314 204 207 325 325 353 18 23 27 25 27 20 4 360 358 353 349 351
229 243 251 264 288 271 210 176 145 124 163 187 226 235 201 178 160 157 156 157 121 319 312 13 7 310 293 239 257 289 288 312 356 16 8 350 3 354 351 348 347 349 352 353
265 262 268 270 251 211 182 165 137 141 318 284 236 211 193 183 176 175 173 177 185 291 338 7 358 336 318 275 252 275 265 293 256 357 355 324 315 322 332 333 340 350 355 357
301 307 306 287 258 211 192 203 230 264 255 223 228 201 195 195 200 192 183 188 211 346 4 347 337 345 337 300 256 266 265 281 268 297 306 310 309 309 318 326 344 350 354 358
350 347 347 311 282 248 237 233 245 229 195 218 220 215 208 205 207 204 198 203 219 304 349 331 325 331 334 314 260 260 271 264 280 280 310 312 317 315 316 331 341 344 344 349
341 358 21 2 311 276 270 267 238 199 209 231 223 211 206 209 212 216 219 227 238 270 309 306 306 319 326 314 269 254 261 269 284 285 300 311 312 310 319 332 342 341 340 345
283 234 286 269 292 294 284 280 245 216 231 237 217 213 215 215 220 231 232 236 239 255 276 290 299 317 326 313 284 259 264 260 291 285 287 299 306 316 324 332 343 339 343 350
290 242 262 257 301 325 298 309 277 248 245 236 220 222 227 231 233 237 240 245 237 253 264 285 293 300 312 301 275 268 268 270 277 299 287 297 307 317 321 330 345 345 343 344
44 336 282 269 283 311 328 340 313 283 276 266 233 234 248 258 255 248 248 258 258 263 267 275 283 286 296 303 289 278 279 286 291 298 295 299 310 323 322 326 341 344 340 342
27 21 322 303 308 311 292 273 290 333 329 293 266 265 274 277 275 267 264 261 262 269 276 274 277 281 281 287 293 287 293 296 296 298 298 301 308 319 317 314 330 336 334 330
34 21 21 9 344 322 307 296 272 256 228 230 254 271 266 265 271 286 279 277 274 274 276 273 271 275 276 272 283 284 284 290 293 293 295 298 301 312 306 302 313 324 323 325
39 44 44 28 356 340 328 324 305 268 241 242 246 243 262 283 284 283 280 276 280 286 285 284 273 277 281 280 287 292 290 291 288 284 285 287 292 304 300 294 299 316 317 320
42 40 38 33 20 352 332 324 314 314 297 254 255 284 267 285 292 285 280 275 286 285 287 289 273 276 283 278 279 280 285 285 282 284 282 281 286 299 305 296 302 310 314 316
Wind_Speed_850mb
10 8 5 8 8 6 13 7 8 10 7 10 8 8 14 10 14 19 23 25 24 27 23 14 22 19 27 29 25 26 28 24 26 26 28 30 30 34 36 39 42 44 48 49
6 6 10 5 13 11 6 2 5 5 4 16 7 10 19 13 17 21 24 25 29 28 13 17 22 24 17 20 23 24 21 20 24 26 25 28 31 32 38 42 45 50 54 58
8 8 9 10 5 4 5 5 4 4 7 9 2 5 8 9 10 12 15 16 15 17 15 3 6 7 9 16 15 14 12 18 23 25 27 30 36 41 44 44 45 49 53 53
5 7 4 9 2 1 12 9 19 7 9 6 4 1 11 27 15 15 12 6 5 10 9 11 9 2 7 5 3 6 14 21 26 30 31 35 39 40 42 44 42 35 29 29
6 6 9 2 6 1 5 2 12 11 7 13 9 5 8 22 22 15 15 7 1 10 15 16 10 8 8 3 5 12 17 17 19 22 29 38 41 38 34 33 29 32 35 30
4 4 7 10 4 6 3 4 11 6 20 13 7 3 12 26 18 19 16 6 4 12 15 15 13 11 8 4 4 9 16 20 23 28 33 32 32 29 25 25 23 21 27 23
2 4 11 6 6 3 3 12 6 26 33 28 14 35 31 39 27 28 20 10 12 15 17 13 11 7 8 5 8 11 14 20 26 27 25 25 22 17 14 20 26 26 24 21
4 3 11 3 8 7 11 17 30 35 32 30 49 44 34 44 44 45 32 21 14 18 17 16 11 9 2 8 12 15 17 22 24 25 24 15 12 13 22 29 26 19 18 22
12 10 9 13 20 16 24 29 42 44 35 36 50 35 17 29 51 46 36 27 18 20 17 14 12 13 16 19 18 19 20 19 19 12 14 15 16 23 25 20 21 21 29 35
5 8 20 23 28 32 40 43 32 27 42 24 24 24 22 34 51 49 41 26 29 28 22 16 12 10 15 16 15 16 16 14 16 15 15 13 15 20 21 21 23 30 32 34
9 18 22 38 45 47 47 41 39 38 26 34 22 23 17 41 49 42 37 33 34 28 20 13 9 11 13 16 13 13 11 13 15 19 16 10 15 19 20 23 28 31 30 33
11 14 19 24 20 33 46 35 28 18 23 22 9 5 21 44 39 33 35 40 34 24 16 12 7 11 12 11 5 5 9 11 17 20 11 12 16 14 15 22 29 32 33 35
9 11 24 40 41 35 13 19 16 15 16 14 17 13 31 30 29 29 37 32 25 18 14 6 4 10 8 2 5 5 8 10 16 17 14 14 15 7 13 20 27 34 39 41
24 26 25 24 14 14 14 15 15 14 11 9 10 27 32 28 34 31 29 23 19 11 4 2 8 10 4 2 2 6 6 6 15 21 21 17 18 10 17 24 30 39 47 51
24 23 23 16 16 21 15 23 21 22 27 23 21 24 21 28 30 28 26 18 10 2 3 6 6 7 3 4 2 4 3 3 10 19 13 20 22 15 17 23 32 41 50 52
12 21 29 33 23 16 27 29 32 26 17 29 23 23 25 22 24 25 17 9 3 3 5 5 6 7 6 6 5 6 8 5 3 15 11 14 11 17 22 25 33 46 50 50
13 22 26 35 34 26 32 36 28 12 18 27 22 32 33 28 25 20 15 11 5 2 4 5 6 10 9 7 9 10 11 9 6 8 11 13 15 22 25 27 37 45 46 42
19 23 27 30 27 31 45 44 32 31 17 32 42 46 35 30 23 20 18 13 5 2 4 5 7 12 15 11 11 12 14 12 12 11 14 18 22 25 25 28 40 47 41 38
18 17 14 12 10 20 32 34 25 18 28 33 45 41 30 27 24 22 18 11 7 2 5 7 10 15 21 17 16 17 16 19 16 17 21 23 26 26 28 36 43 46 37 34
9 6 5 6 5 13 19 26 19 24 26 32 38 38 38 33 29 24 20 13 9 6 7 11 14 18 22 18 16 21 21 21 22 25 24 28 28 29 33 38 45 41 35 34
10 8 7 8 11 19 21 17 20 32 30 30 40 43 37 31 27 27 25 21 14 15 13 16 17 19 24 19 16 21 23 26 24 26 27 27 31 33 39 41 42 39 34 35
12 19 14 14 17 23 22 27 24 27 32 31 38 34 31 32 33 34 29 25 20 23 21 19 21 21 22 18 18 21 24 30 32 30 28 28 30 35 38 36 41 39 37 40
13 7 16 22 23 22 21 21 22 27 34 29 34 32 32 31 35 39 38 28 28 29 28 26 27 26 24 21 20 23 26 29 31 28 28 30 32 36 36 34 36 44 45 48
21 20 12 24 29 21 18 19 24 37 32 28 33 40 38 31 35 42 40 37 34 36 36 36 35 31 31 28 26 25 29 32 33 32 33 35 36 38 37 35 37 46 49 48
24 22 21 20 20 21 23 25 28 27 32 41 32 38 44 44 46 41 38 42 42 44 45 44 43 39 36 32 32 36 33 31 31 35 37 38 38 37 35 36 37 46 51 54
24 23 23 22 20 21 21 20 25 33 39 42 47 36 40 43 54 59 54 52 50 53 55 53 51 42 38 38 38 38 39 42 44 43 44 42 39 36 33 36 40 42 51 55
15 15 16 24 21 18 17 24 27 31 29 37 29 26 38 59 66 57 60 56 59 61 57 52 47 44 46 48 41 46 45 48 55 56 51 47 42 36 34 38 43 45 51 56
Wind_Direction_850mb
227 251 239 245 10 171 191 168 188 257 229 283 184 255 300 309 308 320 327 308 299 293 281 294 243 246 255 255 258 249 294 293 314 301 290 301 306 314 318 319 324 328 324 325
317 305 317 317 30 333 40 147 273 188 213 224 143 157 274 299 301 332 349 358 353 351 262 253 241 243 266 262 255 249 297 304 339 349 314 306 316 319 318 321 323 320 320 316
265 345 342 10 323 28 350 6 282 192 256 118 223 232 273 297 297 314 326 9 20 17 32 138 210 256 275 271 249 286 306 336 344 333 329 327 317 314 316 315 312 311 313 316
226 18 25 246 15 190 125 32 1 357 39 94 208 252 333 320 282 270 289 316 5 63 77 98 110 239 254 273 313 326 327 327 329 319 319 316 312 310 311 313 316 326 330 326
142 185 275 20 306 31 190 302 339 342 260 229 169 148 269 221 255 248 242 234 150 100 109 126 152 181 180 186 280 288 298 312 317 319 320 317 314 320 327 329 334 330 326 338
117 152 204 238 317 303 99 282 348 353 65 27 336 2 269 274 267 227 202 177 127 124 131 142 141 151 180 216 284 298 301 306 311 315 319 322 322 330 338 339 354 6 358 3
116 201 285 269 329 217 91 242 143 133 118 117 229 217 246 268 286 224 210 175 142 131 130 131 149 171 206 238 276 307 309 310 313 324 330 330 329 336 5 12 6 12 11 17
113 84 283 7 295 193 199 187 170 165 185 226 214 239 270 275 244 208 191 166 149 148 145 153 163 217 283 339 338 331 321 318 325 329 337 357 9 20 1 356 2 22 22 15
176 224 284 291 255 233 208 211 220 231 259 274 258 237 295 209 196 197 188 182 176 181 170 175 212 247 288 330 343 334 327 336 346 19 20 21 360 353 4 27 27 25 11 6
31 244 253 263 247 244 234 241 238 275 302 308 277 293 289 201 195 191 193 195 188 187 187 194 226 276 311 327 344 339 348 8 35 40 29 5 22 33 32 35 30 19 13 6
259 274 276 264 250 255 249 252 262 292 276 307 287 263 256 196 188 188 195 192 188 187 188 210 265 307 322 328 338 334 6 31 41 21 27 33 39 47 39 40 26 18 14 2
233 263 219 269 294 280 267 269 285 295 286 281 264 252 195 181 180 180 190 189 182 184 203 239 245 291 311 318 359 19 10 44 34 22 56 47 34 40 46 25 15 11 10 5
256 314 292 275 290 322 277 270 267 301 305 219 185 204 180 162 168 168 167 170 179 206 189 210 321 326 322 10 64 27 36 51 31 20 20 8 8 55 39 22 14 18 12 5
257 277 288 280 265 319 321 274 258 257 167 126 180 176 165 150 152 158 165 176 173 174 174 5 347 327 335 145 122 16 35 35 29 28 30 22 11 10 0 7 10 6 1 355
231 243 257 254 279 281 242 235 212 156 130 118 259 212 179 162 164 163 156 156 160 178 312 349 358 326 314 204 207 325 325 353 18 23 27 25 27 20 4 360 358 353 349 351
229 243 251 264 288 271 210 176 145 124 163 187 226 235 201 178 160 157 156 157 121 319 312 13 7 310 293 239 257 289 288 312 356 16 8 350 3 354 351 348 347 349 352 353
265 262 268 270 251 211 182 165 137 141 318 284 236 211 193 183 176 175 173 177 185 291 338 7 358 336 318 275 252 275 265 293 256 357 355 324 315 322 332 333 340 350 355 357
301 307 306 287 258 211 192 203 230 264 255 223 228 201 195 195 200 192 183 188 211 346 4 347 337 345 337 300 256 266 265 281 268 297 306 310 309 309 318 326 344 350 354 358
350 347 347 311 282 248 237 233 245 229 195 218 220 215 208 205 207 204 198 203 219 304 349 331 325 331 334 314 260 260 271 264 280 280 310 312 317 315 316 331 341 344 344 349
341 358 21 2 311 276 270 267 238 199 209 231 223 211 206 209 212 216 219 227 238 270 309 306 306 319 326 314 269 254 261 269 284 285 300 311 312 310 319 332 342 341 340 345
283 234 286 269 292 294 284 280 245 216 231 237 217 213 215 215 220 231 232 236 239 255 276 290 299 317 326 313 284 259 264 260 291 285 287 299 306 316 324 332 343 339 343 350
290 242 262 257 301 325 298 309 277 248 245 236 220 222 227 231 233 237 240 245 237 253 264 285 293 300 312 301 275 268 268 270 277 299 287 297 307 317 321 330 345 345 343 344
44 336 282 269 283 311 328 340 313 283 276 266 233 234 248 258 255 248 248 258 258 263 267 275 283 286 296 303 289 278 279 286 291 298 295 299 310 323 322 326 341 344 340 342
27 21 322 303 308 311 292 273 290 333 329 293 266 265 274 277 275 267 264 261 262 269 276 274 277 281 281 287 293 287 293 296 296 298 298 301 308 319 317 314 330 336 334 330
34 21 21 9 344 322 307 296 272 256 228 230 254 271 266 265 271 286 279 277 274 274 276 273 271 275 276 272 283 284 284 290 293 293 295 298 301 312 306 302 313 324 323 325
39 44 44 28 356 340 328 324 305 268 241 242 246 243 262 283 284 283 280 276 280 286 285 284 273 277 281 280 287 292 290 291 288 284 285 287 292 304 300 294 299 316 317 320
42 40 38 33 20 352 332 324 314 314 297 254 255 284 267 285 292 285 280 275 286 285 287 289 273 276 283 278 279 280 285 285 282 284 282 281 286 299 305 296 302 310 314 316